Regional Weather Roundup
Issued by NWS

Home | Current Version | Previous Version | Text Only | Print | Product List | Glossary Off
Versions: 1 2 3 4 5 6 7 8 9 10 11 12 13 14 15 16 17 18 19 20 21 22 23 24 25 26 27 28 29 30 31 32 33 34 35 36 37 38 39 40 41 42 43 44 45 46 47 48 49 50

000
ASUS43 KDTX 161701
RWRMI
MICHIGAN HOURLY REGIONAL WEATHER ROUNDUP
NATIONAL WEATHER SERVICE DETROIT/PONTIAC MI
100 PM EDT WED APR 16 2014

NOTE: "FAIR" INDICATES FEW OR NO CLOUDS BELOW 12,000 FEET WITH NO
SIGNIFICANT WEATHER AND/OR OBSTRUCTION TO VISIBILITY.

MIZ047>049-052>055-059>063-066>070-074>076-081>083-161800-
SOUTHEAST LOWER MICHIGAN

CITY           SKY/WX    TMP DP  RH WIND       PRES   REMARKS
ADRIAN         SUNNY     38  16  40 VRB7      30.43F WCI  33
ALMA           SUNNY     38  19  46 S6        30.40F WCI  33
ANN ARBOR      SUNNY     38  16  40 S5        30.43F WCI  34
BAD AXE        PTSUNNY   34  16  47 SE5       30.44F WCI  30
CARO           SUNNY     39  12  33 SE5       30.42F
DETROIT CITY   MOSUNNY   40  18  41 SW7       30.45F
DETROIT        MOSUNNY   38  17  42 SE8       30.45F WCI  32
FLINT          SUNNY     40  16  37 VRB6      30.43F
GROSSE ILE     MOSUNNY   37  23  56 S10G17    30.45S WCI  30
HILLSDALE      SUNNY     39  17  41 S8G18     30.39F WCI  33
HOWELL         SUNNY     38  15  39 S7        30.40F WCI  33

CITY           SKY/WX    TMP DP  RH WIND       PRES   REMARKS
JACKSON        SUNNY     40  16  37 S13       30.39F WCI  32
LAMBERTVILLE   SUNNY     41  18  38 E8G16     30.44F
LANSING        SUNNY     40  16  37 VRB5      30.40F
LAPEER         FAIR      37  14  38 SW6       30.43F WCI  32
MASON          SUNNY     39  19  44 SE9       30.40F WCI  33
MONROE         SUNNY     37  16  41 S6        30.44S WCI  33
MT. CLEMENS    MOSUNNY   37  18  46 SE9       30.44F WCI  31
PONTIAC        MOSUNNY   36  12  37 SE7       30.41F WCI  30
PORT HOPE        N/A     32  24  72 E9        30.44S WCI  24
PORT HURON     SUNNY     37  16  41 S6        30.46F WCI  33
TRI CITIES     SUNNY     39  18  42 S12       30.42F WCI  32
TROY           SUNNY     39  13  33 SE9       30.45F WCI  33
SAGINAW HB     SUNNY     39  19  45 S9        30.42F WCI  33
YPSILANTI      SUNNY     41  16  36 VRB3      30.44F
$$
MIZ043>046-050>051-056>058-064>065-071>073-077>080-161800-
SOUTHWEST LOWER MICHIGAN

CITY           SKY/WX    TMP DP  RH WIND       PRES   REMARKS
BATTLE CREEK   SUNNY     40  18  41 SE10      30.38F WCI  33
BENTON HARBOR  SUNNY     44  20  38 SE13      30.33F
BIG RAPIDS     SUNNY     38  19  46 S7G23     30.34F WCI  33
COLDWATER      SUNNY     39  17  39 S9        30.38F WCI  33
FREMONT        FAIR      39  17  41 SE10G17   30.34F WCI  32
HOLLAND        MOSUNNY   45  22  40 SE15      30.35F
GRAND RAPIDS   PTSUNNY   41  19  41 SE10      30.37F
IONIA          FAIR      39  17  40 S13       30.37F WCI  31
KALAMAZOO      SUNNY     42  16  34 S9G21     30.37F
LUDINGTON      PTSUNNY   39  21  47 S13G20    30.32F WCI  32
MARSHALL       SUNNY     39  16  39 S6G16     30.38F WCI  35
MOUNT PLEASANT MOSUNNY   38  19  44 S8G17     30.39F WCI  32
MUSKEGON       CLOUDY    41  18  39 SE16      30.34F
SOUTH HAVEN    MOSUNNY   42  18  37 S12G20    30.33F
$$
MIZ016>042-161800-
NORTHERN LOWER MICHIGAN

CITY           SKY/WX    TMP DP  RH WIND       PRES   REMARKS
ALPENA         MOSUNNY   33  21  61 SE12      30.41F WCI  24
BEAVER ISLAND  PTSUNNY   35  22  58 S10       30.36F WCI  28
BELLAIRE       SUNNY     39  12  32 SW8       30.34F WCI  34
CADILLAC       PTSUNNY   35  20  55 SE13      30.31F WCI  26
CHARLEVOIX     MOSUNNY   38  19  44 S8        30.39F WCI  33
FRANKFORT      MOSUNNY   39  18  43 SE12G18   30.33F WCI  32
GAYLORD        SUNNY     33  13  43 S9G16     30.33F WCI  25
GRAYLING       SUNNY     35  16  44 S10       30.35F WCI  28
HARBOR SPRINGS SUNNY     37  18  45 W6        30.36F WCI  33
HOUGHTON LAKE  MOSUNNY   36  16  44 VRB5      30.35F WCI  32
MANISTEE       PTSUNNY   39  18  41 S10       30.32F WCI  32
OSCODA         PTSUNNY   36  19  49 S13       30.42F WCI  28
PELLSTON       MOSUNNY   35  15  44 VRB7      30.37F WCI  29
ROGERS CITY    SUNNY     32  22  65 SE6       30.41F WCI  27
TRAVERSE CITY  MOSUNNY   39  12  33 S10       30.33F WCI  32
$$
MIZ007>008-015-161800-
EASTERN UPPER MICHIGAN

CITY           SKY/WX    TMP DP  RH WIND       PRES   REMARKS
KINROSS        SUNNY     32  10  40 SW7       30.37F WCI  26
MACKINAC ISLAN SUNNY     32  17  53 SE6       30.38S WCI  26
NEWBERRY       SUNNY     31  16  55 S9        30.35F WCI  22
S. S. MARIE    SUNNY     32   8  36 S9        30.37F WCI  24
$$
MIZ004>006-011>014-085-161800-
CENTRAL UPPER MICHIGAN

CITY           SKY/WX    TMP DP  RH WIND       PRES   REMARKS
MANISTIQUE     PTSUNNY   31  25  80 S10G17    30.35S WCI  22
ESCANABA       CLOUDY    34  23  64 SE9       30.31F WCI  26
MENOMINEE      CLOUDY    32  28  86 S13       30.30S WCI  22
SAWYER-GWINN   CLOUDY    30  18  59 SW13G18   30.28S WCI  20
$$
MIZ001>003-009>011-084-161800-
WESTERN UPPER MICHIGAN

CITY           SKY/WX    TMP DP  RH WIND       PRES   REMARKS
IRON MOUNTAIN  LGT SNOW  28  21  75 S9        30.25F WCI  19
HOUGHTON       CLOUDY    30  13  49 SE7       30.25S WCI  23
COPPER HARBOR    N/A     32   5  32 SW6       30.29F WCI  26
IRONWOOD       CLOUDY    27  21  80 E10       30.16F VSB 3/4 WCI  17
$$

ABBREVIATIONS USED IN REMARKS
   TC - TEMPERATURE IN CELSIUS
  WCI - WIND CHILL INDEX
   HX - HEAT INDEX
  VSB - VISIBILITY




USA.gov is the U.S. government's official web portal to all federal, state and local government web resources and services.